Location: Unspecified
(0.0000°N, 0.0000°E)
Time: 20:48:52
(UTC+00:00)

Kosmos-2172 - Visible Passes

Search period start: 15 May 2026 00:00
Search period end: 25 May 2026 00:00
Orbit: 942 x 1016 km, 83.0° (Epoch: 15 May)

Date Brightness Start Highest point End Pass type
(mag) Time Alt. Az. Time Alt. Az. Time Alt. Az.
21 May 7.4 20:43:46 11° N 20:43:46 11° N 20:43:54 10° N visible
22 May 7.4 21:09:09 14° NNW 21:09:09 14° NNW 21:09:54 10° NNW visible
23 May 6.9 19:49:46 13° NE 19:49:46 13° NE 19:50:33 10° NNE visible
23 May 7.7 21:34:26 11° NW 21:34:26 11° NW 21:34:42 10° NW visible
24 May 6.2 20:14:57 28° NNE 20:14:57 28° NNE 20:17:40 10° N visible
